Location: Adamstown South Public School
(32.9318°S, 151.7012°E)
Time: 21:03:41
(UTC+00:00)

YAOGAN 3 - Visible Passes

Search period start: 29 September 2020 00:00
Search period end: 09 October 2020 00:00
Orbit: 625 x 627 km, 98.0° (Epoch: 29 September)

Date Brightness Start Highest point End Pass type
(mag) Time Alt. Az. Time Alt. Az. Time Alt. Az.
29 Sep 7.4 09:44:32 10° SSW 09:47:42 19° WSW 09:50:50 10° WNW visible
29 Sep 7.8 19:00:14 10° ENE 19:02:44 15° ESE 19:05:14 10° SSE visible
30 Sep 4.8 08:26:35 10° SSE 08:30:54 50° E 08:35:09 10° N visible
30 Sep 8.0 10:04:58 10° SW 10:06:36 12° WSW 10:08:14 10° W visible
01 Oct 4.6 08:45:34 10° SSE 08:50:00 87° E 08:54:24 10° NNW visible
02 Oct 5.4 09:04:45 10° S 09:09:05 54° WSW 09:13:21 10° NNW visible
03 Oct 6.5 09:24:10 10° S 09:28:06 32° WSW 09:31:59 10° NW visible
04 Oct 7.4 09:43:52 10° SSW 09:47:03 20° WSW 09:50:13 10° WNW visible
04 Oct 7.9 18:59:39 10° E 19:02:06 15° ESE 19:04:32 10° SSE visible
05 Oct 4.8 08:25:57 10° SSE 08:30:15 49° E 08:34:29 10° N visible
05 Oct 8.0 10:04:13 10° SW 10:05:57 12° WSW 10:07:42 10° W visible
06 Oct 4.6 08:44:55 10° SSE 08:49:22 86° ENE 08:53:44 10° NNW visible
07 Oct 5.4 09:04:06 10° S 09:08:25 55° WSW 09:12:42 10° NNW visible
08 Oct 6.5 09:23:29 10° S 09:27:26 33° WSW 09:31:22 10° NW visible
